Location: Buckeye Ditch
(40.9104°N, 122.9517°W)
Time: 12:21:05
(UTC+00:00)

Explorer 7 - Pass Details

Date: 22 May 2025
Orbit: 445 x 571 km, 50.3° (Epoch: 22 June)

Event Time Altitude Azimuth Distance (km) Brightness Sun altitude
Rises 09:27:54 0° 232° (SW) 2,454 - -25.9°
Reaches altitude 10° 09:30:00 10° 231° (SW) 1,598 - -25.8°
Maximum altitude 09:33:35 79° 145° (SE) 483 - -25.5°
Exits shadow 09:35:03 35° 63° (ENE) 789 7.9 -25.4°
Drops below altitude 10° 09:37:22 10° 58° (ENE) 1,671 10.0 -25.2°
Sets 09:39:36 0° 58° (ENE) 2,579 11.1 -25.1°
